Regional Weather Roundup
Issued by NWS

Home | Current Version | Previous Version | Graphics & Text | Print | Product List | Glossary On
Versions: 1 2 3 4 5 6 7 8 9 10 11 12 13 14 15 16 17 18 19 20 21 22 23 24 25 26 27 28 29 30 31 32 33 34 35 36 37 38 39 40 41 42 43 44 45 46 47 48 49 50
000
ASUS43 KMPX 060901
RWRMN
WEATHER ROUNDUP FOR MINNESOTA
NATIONAL WEATHER SERVICE TWIN CITIES/CHANHASSEN MN
400 AM CDT FRI MAY 06 2016


NOTE: "FAIR" INDICATES FEW OR NO CLOUDS BELOW 12,000 FEET WITH NO
SIGNIFICANT WEATHER AND/OR OBSTRUCTIONS TO VISIBILITY. N/A MEANS
CURRENT SKY AND/OR WEATHER CONDITIONS ARE NOT AVAILABLE.

MNZ060>063-068>070-061000-
   Twin Cities Metro

CITY           SKY/WX    TMP DP  RH WIND       PRES   REMARKS
TWIN CITIES    CLEAR     63  41  44 W9        29.87R
ST PAUL        CLEAR     60  43  53 W7        29.87R
CRYSTAL        CLEAR     67  41  38 W12       29.85R
BLAINE         CLEAR     66  43  42 SW9       29.86R
EDEN PRAIRIE   CLEAR     62  41  46 W9        29.86S
SOUTH ST PAUL  CLEAR     64  40  42 W12       29.86R
LAKE ELMO      FAIR      63  43  48 W8        29.87R
$$
MNZ001>005-007-008-013>017-022>024-027-028-061000-
   Northwest Minnesota

CITY           SKY/WX    TMP DP  RH WIND       PRES   REMARKS
BEMIDJI        CLEAR     64  41  44 SW5       29.77F
HALLOCK        CLOUDY    59  37  44 S8        29.65F
ROSEAU         CLEAR     66  43  42 S9        29.67S
WARROAD        CLEAR     64  46  52 SW10      29.68S
THIEF RVR FALL CLEAR     63  39  42 SW13      29.74S
CROOKSTON      CLEAR     63  45  51 S9        29.72F
FOSSTON        CLEAR     54  41  62 S8        29.77S
DETROIT LAKES  PTCLDY    64  43  45 SW12      29.80F
MOORHEAD       CLEAR     57  45  62 SE9       29.77S
PARK RAPIDS    CLEAR     61  42  49 SW8       29.80F
MAHNOMEN       FAIR      60  43  52 S9        29.77S
$$
MNZ006-009>011-018-025>026-061000-
   North Central Minnesota

CITY           SKY/WX    TMP DP  RH WIND       PRES   REMARKS
BAUDETTE       CLOUDY    68  40  35 SW12      29.68S
FLAG ISLAND    CLEAR     63  39  42 CALM      29.64F
INTL FALLS     LGT RAIN  65  40  39 W7        29.70S
WASKISH        PTCLDY    66  46  48 SW15      29.73S
BIG FORK       PTCLDY    66  39  37 SW8       29.75S
LONGVILLE      PTCLDY    64  43  45 SW5       29.80S
GRAND RAPIDS   CLEAR     66  39  37 W7        29.80S
CRANE LAKE     CLEAR     48  43  81 CALM      29.73S
ORR            CLEAR     61  37  41 CALM      29.71S
COOK           CLEAR     63  41  45 SW6       29.75S
WALKER         FAIR      66  40  38 W6        29.78F
$$
MNZ012-019>021-037-061000-
   Northeast Minnesota

CITY           SKY/WX    TMP DP  RH WIND       PRES   REMARKS
DULUTH         PTCLDY    67  41  38 W15       29.78S
ELY            CLEAR     59  39  47 SW5       29.74S
HIBBING        CLOUDY    65  40  39 W9        29.76F
EVELETH        MOCLDY    52  41  66 W3        29.78R
DULUTH HARBOR  CLOUDY    45  37  76 CALM      29.77S
TWO HARBORS    CLOUDY    66  48  52 W8        29.73F
SILVER BAY     CLOUDY    43  37  81 CALM      29.73S
GRAND MARAIS     N/A     42  37  82 CALM      29.72F
G MARAIS ARPRT CLEAR     54  37  54 W9        29.74F
$$
MNZ029>031-032-039>041-046>048-054>057-064-061000-
   West Central Minnesota

CITY           SKY/WX    TMP DP  RH WIND       PRES   REMARKS
FERGUS FALLS   PTCLDY    61  43  51 S10       29.78F
WHEATON        CLEAR     63  46  55 S8        29.82S
MORRIS         CLEAR     55  43  62 S7        29.82F
ALEXANDRIA     PTCLDY    61  43  51 S13       29.85F
ELBOW LAKE     FAIR      57  44  61 S10       29.82F
WADENA         CLEAR     61  43  51 S7        29.81F
GLENWOOD       CLEAR     55  43  62 SW7       29.86F
APPLETON       CLEAR     57  43  58 S3        29.84F
BENSON         CLEAR     54  41  62 S8        29.85F
ORTONVILLE     CLEAR     63  45  51 S6        29.82F
MADISON        CLEAR     61  43  51 SW9       29.84F
WILLMAR        FAIR      61  43  51 S5        29.88F
$$
MNZ033>034-036-042>043-049>051-058-059-061000-
   Central Minnesota

CITY           SKY/WX    TMP DP  RH WIND       PRES   REMARKS
ST CLOUD       CLEAR     62  42  47 SW7       29.84F
SAUK CENTRE      N/A     58  43  56 S7        29.85F
PAYNESVILLE    CLEAR     63  40  42 SW7       29.87S
AITKIN         CLEAR     64  37  36 SW5       29.80S
PINE RIVER     CLEAR     64  45  48 CALM      29.84F
BRAINERD       CLEAR     54  43  66 CALM      29.82F
STAPLES        CLEAR     63  41  45 SW8       29.82F
LONG PRAIRIE   FAIR      59  43  55 S10       29.86S
LITTLE FALLS   CLEAR     63  39  42 SW5       29.84F
LITCHFIELD     CLEAR     63  43  48 SW5       29.87F
BUFFALO        CLEAR     60  42  50 SW3       29.87S
MAPLE LAKE     CLEAR     64  44  49 SW7       29.87S
HUTCHINSON     CLOUDY    63  43  49 SW9       29.89S
$$
MNZ037-044-045-052-053-061000-
   East Central Minnesota

CITY           SKY/WX    TMP DP  RH WIND       PRES   REMARKS
PRINCETON      CLEAR     64  43  45 SW6       29.84F
MORA           CLEAR     59  43  55 W5        29.84S
CAMBRIDGE      CLEAR     66  46  48 SW5       29.82S
RUSH CITY      PTCLDY    62  45  52 W7        29.83S
MOOSE LAKE     CLEAR     64  37  36 W10G18    29.79R
HINCKLEY       CLOUDY    50  43  76 SW6       29.81S
CLOQUET        CLEAR     68  37  32 W14       29.79S
MCGREGOR       CLEAR     63  43  48 SW5       29.81R
$$
MNZ071>073-080-081-089-090-097-098-061000-
   Southwest Minnesota

CITY           SKY/WX    TMP DP  RH WIND       PRES   REMARKS
MONTEVIDEO     CLEAR     55  43  62 SW8       29.87F
GRANITE FALLS  CLEAR     52  42  67 SE8       29.88F
CANBY          CLEAR     67  44  43 SW16G25   29.86F
MARSHALL       CLEAR     67  40  37 SW22      29.86F
REDWOOD FALLS  CLEAR     56  41  57 SW9       29.89S
OLIVIA         CLEAR     54  41  62 S6        29.88F
PIPESTONE      CLEAR     55  43  62 SW8       29.92F
WINDOM         CLEAR     57  43  58 S7        29.93S
WORTHINGTON    CLEAR     59  42  53 SW16      29.94S
JACKSON        CLEAR     59  37  44 SW13      29.94F
TRACY          CLEAR     62  43  49 SW20      29.89S
SLAYTON        CLEAR     58  41  53 SW18      29.92F
$$
MNZ065>067-074>077-082>085-091>093-061000-
   South Central Minnesota

CITY           SKY/WX    TMP DP  RH WIND       PRES   REMARKS
MANKATO        CLEAR     61  39  44 S6        29.91S
NEW ULM        CLEAR     61  41  48 SW12      29.90
ST JAMES       CLEAR     55  37  50 S7        29.92F
FAIRMONT       CLEAR     61  37  41 SW16      29.93R
GLENCOE        CLEAR     62  45  53 SW7       29.87F
FARIBAULT      CLEAR     61  43  51 S3        29.90S
OWATONNA       CLEAR     59  39  47 SW8       29.91S
WASECA         CLEAR     52  37  58 CALM      29.93S
ALBERT LEA     CLEAR     64  37  36 W9G16     29.92S
$$
MNZ078>079-086>088-094>096-061000-
   Southeast Minnesota

CITY           SKY/WX    TMP DP  RH WIND       PRES   REMARKS
ROCHESTER      CLEAR     58  41  53 W16       29.90F
RED WING       CLEAR     61  41  48 W6        29.86S
STANTON        CLEAR     61  41  48 SW7       29.87S
DODGE CENTER   CLEAR     54  39  58 W10       29.90S
WINONA         CLEAR     48  43  81 CALM      29.89S
AUSTIN         CLEAR     54  39  58 W5        29.91F
PRESTON        CLEAR     52  37  56 SW5       29.91S
$$
ABBREVIATIONS USED IN REMARKS
   TC - TEMPERATURES IN CELSIUS
  WCI - WIND CHILL INDEX
   HX - HEAT INDEX
  VSB - VISIBILITY
$$



USA.gov is the U.S. government's official web portal to all federal, state and local government web resources and services.